Regional Weather Roundup
Issued by NWS

Home | Current Version | Previous Version | Text Only | Print | Product List | Glossary Off
Versions: 1 2 3 4 5 6 7 8 9 10 11 12 13 14 15 16 17 18 19 20 21 22 23 24 25 26 27 28 29 30 31 32 33 34 35 36 37 38 39 40 41 42 43 44 45 46 47 48 49 50

000
ASUS43 KLMK 210910
RWRKY
KENTUCKY REGIONAL WEATHER ROUNDUP
NATIONAL WEATHER SERVICE LOUISVILLE KY
500 AM EDT TUE OCT 21 2014

NOTE "FAIR" INDICATES FEW OR NO CLOUDS BELOW 12,000 FEET
WITH NO SIGNIFICANT WEATHER AND/OR OBSTRUCTIONS TO VISIBILITY.

KYZ001>023-026-027-061>063-070>075-211000-
WESTERN AND SOUTH CENTRAL KENTUCKY

CITY           SKY/WX    TMP DP  RH WIND       PRES   REMARKS
PADUCAH        CLEAR     45  44  97 SW5       30.02R
HENDERSON      CLEAR    N/A N/A N/A SW3       30.00S
OWENSBORO      CLEAR     46  44  93 CALM      30.00S
HOPKINSVILLE   CLEAR     47  47 100 SW2       30.01R FOG
BOWLING GREEN  FOG       46  44  93 CALM      30.00S VSB 1/4
GLASGOW        CLEAR     46  46 100 CALM      29.99S FOG
$$

KYZ024-025-028>034-038-045-046-053-211000-
NORTH CENTRAL KENTUCKY

CITY           SKY/WX    TMP DP  RH WIND       PRES   REMARKS
LOUISVILLE/SDF PTCLDY    53  46  77 SW10      29.97R
LOUISVILLE/LOU FOG       46  45  96 CALM      29.98R VSB 1
FORT KNOX      CLEAR     45  44  95 W3        29.97S
$$

KYZ035>037-039>044-047>052-055>060-089>105-211000-
NORTHEAST KENTUCKY

CITY           SKY/WX    TMP DP  RH WIND       PRES   REMARKS
LEXINGTON      MOCLDY    53  48  83 W3        29.94F
COVINGTON      CLEAR     50  46  86 NW9       29.94R
FRANKFORT      MOCLDY    51  47  86 NW6       29.95R
$$

KYZ054-064>069-076>088-106>120-211000-
SOUTHEAST KENTUCKY

CITY           SKY/WX    TMP DP  RH WIND       PRES   REMARKS
JACKSON        PTCLDY    50  47  89 VRB3      29.94S
LONDON         CLEAR     47  44  90 CALM      29.96F
SOMERSET       FOG       45  45 100 CALM      29.98S VSB 3/4
MIDDLESBORO    MOCLDY    46  46  99 CALM      29.98S
MONTICELLO     SUNNY     49  49 100 CALM      30.00S
$$




USA.gov is the U.S. government's official web portal to all federal, state and local government web resources and services.